Vertical_Velocity
3 -1 3 8 2 1 -1 -0 -1 0 -1 0 1 0 1 -1 -1 0 1 -0 -3 -0 -2 -2 -1 -1 0 1 1 -1 -1 0 -3 0 -2 -0 5 -7 1 -0 -2 -2 -0
3 -2 -1 -1 -3 0 1 -0 -1 2 -1 -1 0 -0 1 -1 0 -1 1 -1 -1 1 -1 0 -1 1 2 -1 1 -1 1 -2 -2 3 -2 -0 4 -6 -4 -2 -4 1 0
1 4 3 2 0 0 3 -1 -2 -2 0 0 -3 -0 -2 -2 -0 -2 1 -0 1 2 -1 2 -1 2 -0 2 -2 1 1 -3 -2 -4 2 -1 4 -5 -2 -3 -2 -0 -1
1 1 1 1 -0 1 -0 0 -0 -1 -1 0 -1 0 -2 2 -1 -1 -2 2 1 -1 -1 1 1 1 0 1 -1 -3 2 -0 1 -1 1 1 -3 -2 2 -1 -2 -0 -1
-1 -0 -1 -3 -2 -1 1 -1 -1 -1 -2 -2 1 2 -1 -2 -4 -1 2 -0 2 2 1 2 2 1 -1 2 1 2 1 -2 -1 -1 3 1 -1 -4 -1 -2 -2 4 -2
1 1 2 0 -1 1 2 0 -1 1 -1 -1 -2 -1 1 2 0 -1 1 0 1 0 -1 0 1 5 -6 1 1 4 -1 1 1 -0 -1 1 -1 1 -2 1 -2 -1 4
-2 -1 0 -1 0 1 -2 2 -2 0 -1 -2 -2 1 1 0 0 1 1 2 3 -1 3 -1 -1 -3 5 -2 2 1 -0 3 -1 2 -2 1 -1 -0 -3 -1 -1 1 -2
0 -1 -1 -2 -1 -1 -1 -0 0 0 -0 1 -1 1 0 2 2 1 2 0 6 2 -0 3 2 1 -2 3 3 -0 2 3 -2 2 -1 -1 -1 0 -2 -1 -0 0 0
-1 0 0 -1 0 -0 1 0 -2 1 2 1 0 -2 -1 -1 -1 -1 3 -1 -2 -2 -3 -2 1 -0 -1 2 1 -2 1 1 2 1 -2 -1 -1 1 -1 -1 0 -1 0
-2 -1 -1 -2 -1 -1 -1 -2 -1 -1 -1 -0 0 1 0 -1 -0 0 -1 -0 1 1 2 2 3 1 1 -1 1 1 1 0 0 1 -1 -1 -3 -2 -2 -2 0 1 -1
1 -1 1 -1 1 -0 1 1 0 0 2 2 1 1 2 -0 -1 0 1 1 3 3 2 3 0 2 2 0 1 1 1 1 -0 0 -0 -2 -3 -2 -1 0 0 -1 -0
0 -1 -1 1 -1 -0 -1 -1 1 -1 -2 -1 -0 -2 -1 -1 0 0 2 3 3 0 1 1 2 2 1 1 2 2 1 2 -0 1 1 -0 1 -1 -0 -0 -0 -1 -2
1 1 -0 1 -1 0 0 0 -3 2 -2 -2 0 0 -1 -1 -0 -1 -1 -0 -1 -1 -0 1 1 2 2 0 0 0 0 1 2 1 1 1 -0 1 1 -1 0 -0 -1
1 2 0 -0 -0 -0 -1 -0 -1 1 0 -0 0 1 0 -2 -1 1 0 -1 1 2 3 3 1 -0 0 -1 -0 -0 1 -1 -0 0 1 1 -0 -1 1 -2 -1 -1 -2
1 -0 0 1 -0 -0 -0 1 14 -1 -0 -0 1 2 0 -2 2 -0 -1 0 0 1 1 1 0 -0 -1 0 -1 -0 -0 0 0 -1 -1 -1 -2 -2 -3 -2 -1 -2 -1
1 0 1 -1 -2 0 -0 -2 7 -2 4 1 0 2 2 -0 0 -0 -0 1 2 4 3 0 2 4 3 2 -1 -0 -0 3 1 -0 -1 -1 -2 -1 -0 0 0 -1 -1
1 0 1 -0 1 0 -0 1 -0 1 1 -0 2 4 -2 -2 -0 1 1 2 4 3 -1 1 3 2 1 2 2 2 2 0 -1 1 -1 -1 -1 -0 -0 -1 -0 -1 -1
1 -2 -0 -1 0 1 1 1 1 1 6 2 1 2 3 3 -1 -0 0 3 -1 2 2 1 0 -1 -0 0 1 1 1 1 1 -1 0 -0 -0 0 -1 0 -1 -0 1
0 -2 1 1 -1 0 1 1 2 1 0 -1 -1 -1 -2 -1 -1 -2 7 1 -2 1 1 2 -1 0 2 1 0 1 2 -0 0 2 -0 1 -0 1 -2 -0 -0 -1 1
-1 -3 1 1 1 1 -0 2 0 1 2 1 2 -2 -1 -0 -2 -4 4 7 5 3 -1 -0 -0 -0 -0 2 1 -1 2 0 -1 -0 -0 1 -1 0 -0 0 -1 0 -1
0 -2 -2 1 0 0 2 -1 -0 1 1 1 1 -1 -3 1 1 1 0 1 1 1 -1 -1 -0 0 0 2 2 1 1 1 -1 -1 1 -0 -0 1 1 -0 -0 -1 -1
1 -1 -1 2 -1 1 -0 1 0 0 1 2 1 1 -0 4 -1 1 1 1 -1 1 -1 -1 2 1 1 1 1 1 2 3 0 0 0 -1 1 2 -1 -1 0 -0 -1
2 1 0 2 1 1 2 1 1 0 0 -0 -0 -0 -2 1 2 1 1 0 1 0 -1 0 2 3 1 1 0 -1 1 1 2 2 1 1 2 -1 -0 1 1 0 -0
1 2 2 2 2 2 1 0 -0 -1 -1 -1 -1 -1 -2 -2 -2 -0 -1 -0 1 1 -1 0 3 2 2 1 -0 1 1 -1 3 -1 3 3 -1 -1 2 1 -2 -2 -2
4 1 3 4 3 1 -2 -3 -0 -1 -1 -0 -1 -1 -1 -1 -1 -2 -2 -2 -1 1 -0 -2 1 6 5 2 3 1 2 -0 1 4 2 -0 -0 0 -1 -0 -2 0 -1
6 3 1 -0 -3 -1 1 -0 -1 -0 1 -2 -2 -1 -2 -1 -2 1 -2 -5 -1 -3 -0 -2 3 4 2 -0 0 3 3 4 2 -1 0 2 3 -0 -2 -0 -2 1 0
Height
5735 5737 5739 5740 5741 5742 5742 5742 5743 5743 5743 5743 5744 5744 5745 5745 5744 5744 5743 5743 5742 5742 5740 5740 5738 5736 5734 5731 5728 5725 5723 5722 5719 5717 5714 5712 5710 5707 5705 5702 5700 5698 5696
5723 5724 5727 5728 5728 5729 5730 5729 5730 5731 5730 5731 5732 5732 5732 5732 5732 5732 5731 5731 5730 5729 5729 5728 5727 5725 5722 5720 5718 5716 5714 5712 5710 5707 5705 5703 5702 5700 5698 5695 5693 5690 5689
5711 5713 5715 5716 5716 5717 5717 5717 5717 5718 5719 5718 5719 5720 5720 5720 5719 5719 5719 5719 5718 5718 5717 5716 5714 5713 5712 5710 5708 5707 5705 5703 5700 5699 5696 5695 5693 5692 5690 5688 5686 5682 5681
5701 5702 5703 5703 5704 5705 5704 5704 5704 5704 5705 5705 5705 5706 5707 5707 5706 5707 5708 5707 5707 5706 5706 5704 5703 5702 5701 5700 5698 5697 5695 5695 5692 5690 5689 5687 5686 5684 5681 5680 5679 5676 5674
5690 5691 5692 5693 5693 5693 5693 5692 5692 5693 5693 5693 5693 5693 5694 5695 5695 5695 5696 5695 5695 5694 5694 5693 5692 5691 5690 5689 5689 5687 5687 5686 5684 5682 5681 5680 5678 5677 5675 5673 5671 5669 5667
5680 5681 5682 5683 5684 5683 5683 5682 5682 5682 5682 5681 5681 5681 5681 5681 5682 5683 5683 5683 5682 5682 5682 5682 5681 5680 5680 5680 5679 5679 5678 5677 5677 5674 5674 5673 5671 5670 5668 5666 5663 5662 5660
5670 5671 5672 5673 5673 5673 5672 5671 5671 5670 5669 5670 5669 5669 5668 5669 5670 5670 5669 5670 5670 5670 5669 5670 5671 5670 5670 5670 5671 5670 5669 5669 5668 5667 5666 5665 5663 5661 5660 5658 5655 5653 5651
5662 5662 5662 5663 5663 5662 5661 5660 5659 5658 5658 5658 5657 5657 5656 5655 5656 5656 5656 5657 5657 5657 5658 5659 5660 5661 5662 5661 5663 5662 5660 5660 5659 5658 5657 5656 5654 5653 5651 5648 5646 5644 5642
5654 5654 5654 5653 5652 5652 5651 5650 5648 5647 5648 5648 5647 5647 5646 5645 5644 5644 5645 5646 5646 5648 5649 5650 5652 5653 5655 5654 5655 5655 5651 5651 5651 5649 5648 5646 5645 5644 5642 5639 5637 5635 5633
5644 5645 5644 5644 5644 5643 5642 5640 5639 5639 5638 5638 5638 5638 5637 5636 5635 5635 5636 5637 5637 5639 5640 5641 5643 5646 5647 5647 5647 5646 5644 5643 5642 5641 5640 5638 5637 5635 5633 5631 5629 5626 5623
5637 5637 5636 5636 5636 5635 5634 5633 5633 5632 5631 5630 5630 5629 5629 5628 5628 5628 5629 5629 5630 5631 5632 5634 5636 5639 5640 5639 5639 5637 5636 5635 5634 5632 5631 5629 5627 5625 5623 5621 5619 5616 5613
5628 5628 5627 5627 5627 5626 5626 5625 5625 5624 5623 5622 5621 5621 5620 5621 5621 5621 5622 5622 5623 5623 5625 5627 5629 5631 5631 5631 5630 5628 5627 5626 5624 5622 5620 5619 5617 5615 5613 5611 5608 5605 5602
5618 5618 5618 5618 5618 5618 5618 5618 5617 5616 5616 5614 5614 5614 5614 5615 5615 5615 5615 5616 5616 5617 5619 5620 5621 5622 5622 5621 5620 5618 5617 5616 5614 5612 5611 5609 5607 5605 5602 5600 5597 5593 5590
5609 5609 5610 5610 5610 5610 5610 5610 5610 5609 5608 5607 5607 5607 5608 5608 5608 5609 5609 5609 5610 5611 5612 5612 5613 5613 5612 5612 5611 5609 5608 5606 5604 5602 5600 5598 5596 5594 5591 5588 5585 5581 5578
5600 5601 5601 5601 5601 5601 5601 5602 5601 5602 5602 5601 5601 5601 5601 5601 5602 5601 5601 5602 5602 5603 5604 5603 5603 5603 5603 5602 5601 5599 5597 5596 5594 5592 5590 5588 5585 5582 5579 5576 5573 5569 5565
5591 5592 5593 5593 5593 5593 5593 5594 5593 5594 5594 5594 5594 5594 5594 5594 5594 5594 5594 5594 5595 5595 5595 5594 5594 5593 5592 5591 5590 5589 5587 5585 5583 5581 5579 5577 5574 5571 5567 5564 5561 5557 5553
5582 5583 5584 5584 5584 5584 5585 5585 5586 5586 5587 5587 5587 5587 5587 5587 5586 5586 5586 5586 5586 5586 5586 5585 5584 5583 5581 5580 5579 5578 5577 5575 5573 5570 5568 5565 5562 5559 5555 5551 5547 5543 5540
5574 5574 5575 5576 5576 5576 5577 5577 5578 5578 5579 5579 5579 5579 5578 5578 5578 5578 5578 5578 5577 5576 5576 5575 5574 5573 5572 5571 5569 5568 5566 5564 5562 5559 5556 5553 5550 5546 5542 5538 5534 5531 5527
5564 5564 5566 5567 5567 5568 5568 5569 5569 5570 5570 5570 5570 5570 5569 5569 5568 5568 5569 5569 5568 5567 5566 5565 5564 5563 5562 5560 5558 5557 5555 5552 5550 5547 5544 5540 5537 5533 5529 5525 5522 5518 5514
5553 5554 5555 5556 5557 5558 5559 5559 5559 5560 5560 5559 5559 5558 5558 5558 5558 5558 5558 5558 5558 5557 5555 5554 5553 5551 5550 5548 5547 5544 5542 5540 5537 5534 5530 5526 5523 5519 5515 5512 5509 5505 5500
5541 5543 5544 5546 5547 5548 5548 5548 5548 5549 5549 5548 5548 5547 5547 5547 5547 5547 5546 5546 5545 5544 5542 5541 5539 5537 5536 5535 5533 5531 5529 5526 5523 5520 5517 5513 5509 5505 5502 5499 5496 5492 5486
5529 5530 5532 5534 5535 5536 5537 5537 5538 5538 5537 5537 5537 5536 5535 5535 5534 5534 5533 5532 5531 5529 5528 5526 5525 5523 5522 5520 5518 5517 5515 5512 5509 5506 5503 5499 5495 5492 5489 5487 5483 5478 5472
5517 5519 5520 5522 5524 5525 5527 5528 5528 5528 5527 5527 5526 5525 5524 5523 5522 5521 5520 5518 5516 5514 5512 5510 5508 5507 5506 5505 5503 5501 5499 5497 5494 5491 5488 5484 5481 5479 5477 5473 5469 5463 5457
5505 5508 5510 5512 5514 5516 5517 5517 5517 5517 5517 5516 5515 5514 5513 5512 5510 5509 5507 5505 5503 5500 5497 5495 5493 5492 5491 5489 5488 5487 5484 5482 5480 5477 5474 5471 5469 5467 5463 5459 5453 5448 5442
5494 5498 5501 5503 5505 5506 5507 5508 5508 5507 5507 5506 5505 5504 5503 5501 5499 5497 5494 5492 5489 5486 5482 5480 5478 5477 5476 5475 5474 5472 5470 5468 5465 5463 5461 5459 5456 5453 5449 5444 5439 5433 5426
5487 5490 5492 5494 5496 5498 5498 5499 5499 5499 5498 5498 5497 5495 5494 5492 5489 5486 5482 5479 5475 5473 5469 5467 5465 5464 5463 5462 5460 5459 5457 5455 5453 5451 5449 5447 5443 5438 5434 5429 5423 5417 5410